Regional Weather Roundup
Issued by NWS

Home | Current Version | Previous Version | Text Only | Print | Product List | Glossary On
Versions: 1 2 3 4 5 6 7 8 9 10 11 12 13 14 15 16 17 18 19 20 21 22 23 24 25 26 27 28 29 30 31 32 33 34 35 36 37 38 39 40 41 42 43 44 45 46 47 48 49 50
000
ASUS43 KOAX 161010
RWRNE

WEATHER ROUNDUP FOR NEBRASKA
NATIONAL WEATHER SERVICE OMAHA NE
500 AM CDT WED APR 16 2014

NOTES: SATELLITE DATA IS BEING USED TO AUGMENT CLOUD COVER ABOVE
       12000 FEET.
       "FAIR" INDICATES FEW OR NO CLOUDS BELOW 12,000 FEET WITH NO
       SIGNIFICANT WEATHER AND/OR OBSTRUCTIONS TO VISIBILITY.

  * THESE STATIONS DO NOT REPORT WEATHER SUCH AS RAIN...SNOW OR FOG.

NEZ001>004-019>022-054>056-161100-
NEBRASKA PANHANDLE

CITY           SKY/WX    TMP DP  RH WIND       PRES   REMARKS
SCOTTSBLUFF    MOCLDY    42  34  73 NW21G31   29.72R
ALLIANCE       MOCLDY    43  35  73 NW18      29.65R
CHADRON        LGT RAIN  41  38  89 NW15      29.68R FOG
KIMBALL        CLOUDY    37  31  80 NW22      29.73R WCI  26
SIDNEY         CLOUDY    43  32  65 NW28G40   29.69R
$$

NEZ057>060-069>072-079>082-161100-
SOUTHWEST NEBRASKA

CITY           SKY/WX    TMP DP  RH WIND       PRES   REMARKS
NORTH PLATTE   MOCLDY    40  26  57 SE3       29.59F
IMPERIAL       PTCLDY    43  30  60 NW12      29.62R
LEXINGTON      MOCLDY    45  25  44 W6G17     29.61R
MCCOOK         MOCLDY    44  23  43 SW10      29.60R
OGALLALA       MOCLDY    54  28  36 W16G24    29.60R
$$

NEZ005>010-023>029-035>040-094-161100-
NORTH CENTRAL NEBRASKA

CITY           SKY/WX    TMP DP  RH WIND       PRES   REMARKS
VALENTINE      CLOUDY    50  30  46 NW24G31   29.52R
AINSWORTH      CLOUDY    57  32  38 W22G36    29.53R
BROKEN BOW     CLOUDY    43  27  53 SW9       29.59R
O`NEILL        CLOUDY    49  24  38 S14       29.55S
ORD            MOCLDY    46  25  43 SW8       29.62R
THEDFORD       CLOUDY    58  31  36 W13G21    29.55S
$$

NEZ041-046>049-061>064-073>077-083>087-161100-
SOUTH CENTRAL NEBRASKA

CITY           SKY/WX    TMP DP  RH WIND       PRES   REMARKS
GRAND ISLAND   CLOUDY    47  24  40 S22G30    29.63F
AURORA         CLOUDY    46  23  39 S17G25    29.64F
HASTINGS       MOCLDY    47  22  37 S16G24    29.64F
HEBRON         CLEAR     47  19  32 S20G28    29.71S
HOLDREGE       CLOUDY    46  21  37 S17G23    29.61S
KEARNEY *      CLOUDY    45  25  45 S17       29.62S
YORK           MOCLDY    45  23  42 S23       29.67F
$$

NEZ011>018-030>034-042>045-161100-
NORTHEAST NEBRASKA

CITY           SKY/WX    TMP DP  RH WIND       PRES   REMARKS
NORFOLK        CLOUDY    48  23  37 S24G35    29.60F
ALBION         CLOUDY    45  25  44 S16       29.61F
BLAIR          MOCLDY    45  28  52 S23G29    29.73F
COLUMBUS *     CLOUDY    46  21  36 S18G29    29.66S
FREMONT        CLOUDY    48  25  40 S22G29    29.70F
TEKAMAH        CLOUDY    47  28  47 S26G33    29.72F
$$

NEZ050>053-065>068-078-088>093-161100-
SOUTHEAST NEBRASKA

CITY           SKY/WX    TMP DP  RH WIND       PRES   REMARKS
LINCOLN        PTCLDY    49  23  36 S22G32    29.72F
OMAHA EPPLEY   MOCLDY    45  29  53 S22G31    29.77F
BEATRICE       PTCLDY    48  24  39 S21G26    29.76S
FALLS CITY     CLEAR     47  29  49 S18G28    29.84F
NEBRASKA CITY  PTCLDY    44  29  54 S18G25    29.80F
PLATTSMOUTH    PTCLDY    45  27  49 S20G25    29.77F
$$

NEZ044-045-051>053-067-161100-
OMAHA AREA

CITY           SKY/WX    TMP DP  RH WIND       PRES   REMARKS
OMAHA EPPLEY   MOCLDY    45  29  53 S22G31    29.77F
BLAIR          MOCLDY    45  28  52 S23G29    29.73F
FREMONT        CLOUDY    48  25  40 S22G29    29.70F
MILLARD        MOCLDY    46  28  49 SE15G25   29.76F
OFFUTT AFB     MOCLDY    42  31  65 SE13      29.78F
PLATTSMOUTH    PTCLDY    45  27  49 S20G25    29.77F
WAHOO          FAIR      46  25  42 S18       29.72F
$$



USA.gov is the U.S. government's official web portal to all federal, state and local government web resources and services.